Regional Weather Roundup
Issued by NWS Newport/Morehead, NC

Current Version | Previous Version | Text Only | Print | Product List | Glossary Off
Versions: 1 2 3 4 5 6 7 8 9 10 11 12 13 14 15 16 17 18 19 20 21 22 23 24 25 26 27 28 29 30 31 32 33 34 35 36 37 38 39 40 41 42 43 44 45 46 47 48 49 50
000 ASUS42 KMHX 281913 RWRMHX WEATHER ROUNDUP FOR EASTERN NORTH CAROLINA NATIONAL WEATHER SERVICE NEWPORT/MOREHEAD CITY NC 300 PM EDT SAT MAY 28 2016 NOTE: "FAIR" INDICATES FEW OR NO CLOUDS BELOW 12,000 FEET WITH NO SIGNIFICANT WEATHER AND/OR OBSTRUCTIONS TO VISIBILITY NCZ015>017-031-032-045>047-102-103-282000- NORTH COAST CITY SKY/WX TMP DP RH WIND PRES REMARKS EDENTON SUNNY 83 74 73 E10 30.18F ELIZABETH CITY SUNNY 81 66 60 SE14 30.18F KITTY HAWK CLEAR 82 67 59 NE6 30.18F MANTEO NOT AVBL $$ NCZ045>047-081-094-103-104-282000- CENTRAL COAST CITY SKY/WX TMP DP RH WIND PRES REMARKS FRISCO PTSUNNY 84 67 56 E9 30.16F $$ NCZ095-097-098-100-101-282000- SOUTHERN COAST CITY SKY/WX TMP DP RH WIND PRES REMARKS BEAUFORT MOSUNNY 81 69 67 E8G16 30.15F CEDAR ISLAND NOT AVBL JACKSONVILLE MOSUNNY 83 65 54 SE13 30.13F PINEY ISLAND CLEAR N/A N/A N/A E13 30.16F WILMINGTON CLOUDY 78 68 71 E15G22 30.13F $$ NCZ011>013-027>030-043-044-078>080-089-090>093-098-282000- COASTAL PLAIN CITY SKY/WX TMP DP RH WIND PRES REMARKS AHOSKIE SUNNY 83 60 45 SE3 30.16F CLINTON MOSUNNY 85 67 55 NE7 30.14S ELIZABETHTOWN RAIN 74 67 77 CALM 30.14S GOLDSBORO NOT AVBL GREENVILLE CLOUDY 86 63 45 E9 30.16F HAVELOCK PTSUNNY 85 66 53 NE15 30.16F KENANSVILLE CLOUDY 80 67 63 CALM 30.16S KINSTON MOSUNNY 82 64 54 SE13 30.16F NEW BERN CLOUDY 82 63 52 SE10 30.16F RICHLANDS PTSUNNY 82 70 66 NE13G20 30.15 ROCKY MOUNT MOSUNNY 85 60 42 CALM 30.15F WASHINGTON MOSUNNY 83 68 59 SE10G16 30.15F WHITEVILLE CLOUDY 82 67 62 NE9 30.11F $$ AMZ130-135-150-152-154-156-158-170-250-252-270-ANZ085-086-088-633-658-670-282000- MARINE OBSERVATIONS STATION/POSITION TIME TEMP WIND PRES WAVE SWELL AIR SEA DIR/SP/G HT/PER HT/PER (UTC) (F) (DEG/KT/KT) (MB) (FT/S) (FT/S) CHESAPEAKE LIGHT 1900 71 120/ 11/ 11 1023.1 64 E VA BEACH 1850 70 65 40/ 4/ 6 1022.7 3/ 8 3/ 8 DUCK 1800 74 65 80/ 7/ 8 1022.5 2 E DUCK 1811 69 N/A 3/ 7 OREGON INLET 1800 75 74 30/ 9/ 11 1022.5 13E OREGON INLT 1800 73 N/A 3/ 9 3/ 9 HATTERAS CG 1800 78 74 90/ 8/ 12 1021.5 DIAMOND BUOY 1850 78 78 80/ 10/ 10 1021.1 6/ 8 5/ 8 CAPE LOOKOUT 1900 77 40/ 8/ 11 1020.6 BEAUFORT LAB 1800 78 73 100/ 11/ 19 1020.6 30 SE NEW RVR IN 1825 75 N/A 6/ 8 27 SE WRIGHTSVLE 1808 77 74 80/ 12/ 17 1019.9 5 SE WRIGHTSVLE 1808 76 75 70/ 14/ 17 1021.0 225 S CAPE HAT 1850 76 76 100/ 16/ 17 1018.1 4/ 6 2/ 7 41 SE CHARLESTON 1850 76 76 40/ 21/ 25 1016.1 7/ 9 5/ 9 $$

USA.gov is the U.S. government's official web portal to all federal, state and local government web resources and services.